Location: Unspecified
(0.0000°N, 0.0000°E)
Time: 10:36:00
(UTC+00:00)

Explorer 11/Cluster Stage 4 - Pass Details

Date: 04 October 2020
Orbit: 467 x 1258 km, 28.8° (Epoch: 28 October)

Event Time Altitude Azimuth Distance (km) Brightness Sun altitude
Rises 18:17:59 0° 246° (WSW) 2,682 11.0 -7.3°
Reaches altitude 10° 18:20:23 10° 251° (WSW) 1,713 9.8 -7.9°
Maximum altitude 18:24:08 54° 329° (NNW) 577 6.1 -8.9°
Drops below altitude 10° 18:27:39 10° 47° (NE) 1,602 7.7 -9.8°
Enters shadow 18:27:57 - 48° (NE) 1,722 7.9 -9.8°
Sets 18:29:49 0° 52° (NE) 2,486 - -10.3°
